COSMOS 1975 
1 19574U 88093B   03041.05965992  .00000644  00000-0  79527-4 0   671
2 19574  82.5306 355.7387 0024686  83.0148 277.3867 14.81117649773177
COSMOS 1980 
1 19650U 88102B   03040.95556722 -.00000060  00000-0 -62834-5 0  3044
2 19650  70.9933 232.2114 0016039 240.6544 119.2961 14.15390165734292
INTERCOSMOS 
1 20261U 89080A   03040.86643610  .00000925  00000-0  28519-3 0  1713
2 20261  82.5940 155.1174 1218288 264.0521  82.0760 12.52279767609090
INTERCOSMOS 
1 20262U 89080C   03040.88734494  .00000314  00000-0  96374-4 0  1859
2 20262  82.5924 167.8769 1243260 308.3546  41.2015 12.47242794607957
COBE R/B 
1 20323U 89089B   03041.02878646  .00000588  00000-0  16891-3 0  8193
2 20323  97.0665  38.2415 0074953 338.6759  21.1318 14.45971435696793
COSMOS 2053 
1 20390U 89100B   03040.92560898  .00081678  00000-0  35568-3 0  6296
2 20390  73.4887  18.7188 0006919 258.0707 101.9756 15.84404606733033
DELTA 2 R/B1
1 20453U 90008B   03041.10550230  .00004074  00000-0  33373-3 0  7046
2 20453  35.6360 252.0045 0412604 321.7080  35.4988 14.50490085679707
COSMOS 2058 
1 20465U 90010A   03040.54971153  .00002665  00000-0  28271-3 0  5278
2 20465  82.4922 204.1596 0019561 161.5218 198.6830 14.88589275703630
COSMOS 2058 
1 20466U 90010B   03041.66868600  .00000463  00000-0  58994-4 0  6692
2 20466  82.4993 227.1984 0019562 241.1447 118.7801 14.79303533702298
OKEAN 2 R/B 
1 20511U 90018B   03040.80088827  .00000551  00000-0  73025-4 0  7063
2 20511  82.5242 146.6869 0018738 357.2769   2.8336 14.78049491697405
HST 
1 20580U 90037B   03041.36427012  .00002781  00000-0  21793-3 0  3220
2 20580  28.4678  91.3701 0004218 179.9886 287.1780 14.97783309501400
COSMOS 2082 
1 20625U 90046B   03040.95263125  .00000225  00000-0  14292-3 0  7408
2 20625  70.9909 345.7822 0014184 154.4122 205.7706 14.14206207656730
COSMOS 2084 
1 20663U 90055A   03040.84419445  .00002009  00000-0  25121-3 0   224
2 20663  62.7980 301.6635 0090055   8.6503 351.6112 14.82814113680608
COSMOS 2084 
1 20666U 90055D   03040.92103126  .00001387  00000-0  17120-3 0  9027
2 20666  62.7869 249.7322 0103975  26.0347 334.5918 14.84031197681518
COSMOS 2098 
1 20775U 90078B   03042.18332478  .00008289  00000-0  52389-3 0  8312
2 20775  82.9415 207.9350 0788865   8.5503 352.8218 13.83835593613390
COSMOS 2106 
1 20967U 90104B   03041.85187409  .00015579  00000-0  25422-3 0  1210
2 20967  82.4891 195.2107 0007954  96.6165 263.6092 15.52404951679568
INFORMATOR 1
1 21088U 91006B   03042.19121892  .00000104  00000-0  90151-4 0  7800
2 21088  82.9427 313.7377 0021053 220.2955 139.6643 13.76571893604574
OKEAN 3 
1 21397U 91039A   03041.50233235  .00001595  00000-0  18439-3 0  9061
2 21397  82.5185  41.2933 0019905   7.2362 352.9144 14.84840309630456
COSMOS 2151 
1 21422U 91042A   03041.79194575  .00002120  00000-0  24317-3 0  3283
2 21422  82.5042 164.6117 0017853  58.9734 301.3248 14.85355158629058
COSMOS 2151 
1 21423U 91042B   03040.84709312  .00000594  00000-0  79231-4 0  5146
2 21423  82.4948 171.1182 0019565 107.3683 252.9670 14.77842344628050
ERS-1 
1 21574U 91050A   03040.92502533  .00000229  00000-0  94272-4 0  7371
2 21574  98.4430 114.9429 0034608 163.4077 196.8249 14.35266049605345
ERS-1 R/B 
1 21610U 91050F   03042.10351363  .00000570  00000-0  20195-3 0  4117
2 21610  98.3215   3.3026 0004165  88.2088 271.9577 14.38143616606281
UARS 
1 21701U 91063B   03041.44759780  .00000878  00000-0  83881-4 0  8211
2 21701  56.9808  64.9225 0004807 113.5004 246.6550 15.02840232624490
INTERCOSMOS 
1 21819U 91086A   03040.81055157  .00003554  00000-0  70689-3 0  8690
2 21819  82.5601 310.6197 1562830 357.4631   1.9112 11.96325783483594
INTERCOSMOS 
1 21820U 91086B   03040.90827643  .00001646  00000-0  32977-3 0  4312
2 21820  82.5607 319.7911 1593634  27.8852 339.9065 11.89668788482693
COSMOS 2180 
1 21876U 92008B   03041.54278978  .00001468  00000-0  15125-2 0  5161
2 21876  82.9219  50.7504 0033396 259.6103 100.1286 13.75205971550994
COSMOS 2184 
1 21938U 92020B   03041.18004375  .00000138  00000-0  12812-3 0  5368
2 21938  82.9294 290.2387 0030914  51.4778 308.9140 13.74904029543027
COSMOS 2219 
1 22220U 92076B   03040.95427345 -.00000197  00000-0 -75585-4 0  3254
2 22220  70.9998 287.3237 0012921 327.4993  32.5333 14.15960109528747
COSMOS 2227 
1 22285U 92093B   03041.12102130 -.00000109  00000-0 -31952-4 0  3406
2 22285  71.0151  42.7037 0005823 208.3949 151.6856 14.14551046521272
COSMOS 2228 
1 22286U 92094A   03042.11143403  .00001368  00000-0  17125-3 0  7636
2 22286  82.5177 245.5820 0023693 129.6960 230.6348 14.81382122545365
COSMOS 2237 
1 22566U 93016B   03041.89495651 -.00000090  00000-0 -21837-4 0  2589
2 22566  71.0053 262.0714 0010854 192.8059 167.2788 14.14536703510158
COSMOS 2242 
1 22626U 93024A   03041.70330374  .00001311  00000-0  16383-3 0  5571
2 22626  82.5190 273.7105 0022483 133.5738 226.7357 14.81448153528904
COSMOS 2263 
1 22803U 93059B   03040.90753929  .00000390  00000-0  22021-3 0  3291
2 22803  70.9877 130.3178 0015384  84.4093 275.8784 14.16411672486043
SPOT 3 R/B 
1 22830U 93061H   03040.93820601  .00000251  00000-0  11291-3 0  1481
2 22830  98.2729  32.4375 0010496 212.4261 147.6294 14.30073698488820
COSMOS 2278 
1 23087U 94023A   03041.80767753  .00000333  00000-0  20316-3 0   321
2 23087  71.0514 144.7613 0010106 291.2217  68.7803 14.13130042454057
COSMOS 2278 
1 23088U 94023B   03041.22728843  .00000173  00000-0  11530-3 0  9638
2 23088  70.9992 118.8947 0002782 174.8493 185.2655 14.14349663454446
RESURS O1 R 
1 23343U 94074B   03041.09746240  .00000654  00000-0  10633-3 0  7886
2 23343  97.7354  40.3817 0007407 345.0767  15.0223 14.74124121444063
COSMOS 2297 
1 23405U 94077B   03040.60593768 -.00000029  00000-0  10000-4 0   765
2 23405  70.9794  71.7104 0003893 325.8895  34.1982 14.14765524424078
ERS 2 
1 23560U 95021A   03042.15965397  .00000309  00000-0  13092-3 0  1203
2 23560  98.5459 117.9295 0000750  82.5153 277.6108 14.32253419408409
ARIANE 4 R/B
1 23561U 95021B   03041.56924418  .00000365  00000-0  14045-3 0  7169
2 23561  98.1750  48.7410 0007777  40.8205 319.3563 14.35727837408795
SL-16 R/B 
1 23705U 95058B   03040.94811134  .00000437  00000-0  25112-3 0  9181
2 23705  71.0167 221.5488 0012081 356.6275   3.4753 14.14722482375830
SL-16 R/B 
1 24298U 96051B   03040.77117326 -.00000048  00000-0  00000+0 0  6053
2 24298  70.9116 288.6193 0013928  99.1405 261.1292 14.12384730331732
ORBVIEW 2 SE
1 24883U 97037A   03041.85380317  .00000590  00000-0  13494-3 0   353
2 24883  98.2184 142.8736 0001060 186.1388 173.9799 14.59180224294222
SL-16 R/B 
1 25400U 98043G   03041.18637262  .00000077  00000-0  51419-4 0  6375
2 25400  98.6401 123.4882 0009756 161.1580 198.9961 14.24887595238591
SL-16 R/B 
1 25407U 98045B   03041.54408259 -.00000048  00000-0  00000+0 0  5896
2 25407  71.0083 250.4400 0009495 267.7385  92.2655 14.15349278234573
ISS ZARYA 
1 25544U 98067A   03042.15886484  .00035259  00000-0  42090-3 0  6745
2 25544  51.6354 293.1721 0005463 134.1715  24.0999 15.60676962241346
SL-08 R/B 
1 25723U 99022C   03040.75681886  .00003821  00000-0  24696-3 0  6156
2 25723  48.4373 162.5610 0027995  59.3753 300.9929 15.10045526207825
CSL-04 R/B 
1 25732U 99025C   03040.60754135  .00000087  00000-0  63860-4 0  5451
2 25732  98.5734  70.5995 0037875   2.5976 357.5383 14.16934457194182
OKEAN O 
1 25860U 99039A   03040.93806746  .00000691  00000-0  11617-3 0   166
2 25860  97.8645  88.7518 0002128  94.1632 265.9819 14.72593514191661
SL-16 R/B 
1 25861U 99039B   03040.67849684  .00000440  00000-0  70891-4 0  3712
2 25861  97.8643  95.2809 0016945 117.8959 242.3968 14.76054839192080
CORONAS F 
1 26873U 01032A   03040.85552914  .00013111  00000-0  32174-3 0  5890
2 26873  82.4771 251.2363 0022839  82.9925 277.3962 15.40273562 85372
SL-14 R/B 
1 26874U 01032B   03040.66896936  .00004245  00000-0  15448-3 0  3043
2 26874  82.4789 256.4701 0029674  99.9879 260.4711 15.27506696 85024
ENVISAT 
1 27386U 02009A   03040.95224427  .00000215  00000-0  95972-4 0  9252
2 27386  98.5461 109.6253 0000971 100.1489 259.9802 14.32255425 49514
IDEFIX/ARIAN
1 27422U 02021B   03040.91380875  .00000248  00000-0  11790-3 0  2864
2 27422  98.6958 120.1551 0012742 171.5870 188.5526 14.27964807 40225
GOES 2 
1 10061U 77048A   03041.64344854 -.00000146  00000-0  00000+0 0   846
2 10061  14.1321  13.4869 0012973 199.7553 160.2330  0.99401033 38751
GOES 6 
1 14050U 83041A   03040.07554305  .00000050  00000-0  10000-3 0  4211
2 14050  10.3882  35.5600 0003554 347.4720  12.5737  1.00299948130547
GOES 7 
1 17561U 87022A   03041.23222589  .00000058  00000-0  10000-3 0  8479
2 17561   7.5860  55.5936 0005361 259.2779  90.4641  1.00251022 41650
INSAT 1D 
1 20643U 90051A   03037.64265630 -.00000055  00000-0  10000-3 0  8854
2 20643   4.1714  80.9806 0014076 324.1247  33.9140  1.00284275 33191
FENGYUN 1B 
1 20788U 90081A   03041.18473346 -.00000188  00000-0 -94014-4 0  8784
2 20788  99.0265  23.4485 0014986 253.6168 106.3350 14.02134002636362
METEOSAT 5 M
1 21140U 91015B   03040.92294638  .00000028  00000-0  10000-3 0  7121
2 21140   5.6097  70.0061 0002047 146.6131 318.0024  1.00271995 45962
NOAA 12 
1 21263U 91032A   03042.04126976  .00000332  00000-0  15995-3 0  9645
2 21263  98.6251  31.7959 0013686  45.7430 314.4870 14.25075045610140
METEOR 3-5 
1 21655U 91056A   03041.54524583  .00000051  00000-0  10000-3 0  4988
2 21655  82.5543  44.5280 0012415 215.8451 144.1839 13.16980377552423
